Find Starlink 34913

NORAD ID: 65369 Int'l Des: 2025-190 Owner: SPXS Country: US Constellation: starlink operational
LEOCIRCULAR

Live-Position

3D-Globus wird geladen...

Über Starlink 34913

Beschreibung wird geladen...

Nächste Überflüge

Passes for default location (London). Set your location on the main map for personalized predictions.

Höhenverlauf

Loading altitude history...

Zweizeiliger Elementsatz

1 65369U 25190U 26138.89705914 .00013373 00000-0 46258-3 0 9994
2 65369 53.1609 202.1152 0001061 90.5955 269.5167 15.30216612 40501
Epoch: 18. Mai 2026 • Age: 15 hours

Aktueller Status

Höhe 486.7 km
Geschwindigkeit 7.62 km/s
Subsatellitenpunkt -34.98°S, 15.86°W
Startdatum 28. Aug. 2025
Alter 0.7 years
Typ internet

Technische Details

Klassifizierung Payload
Masse 575.00 kg
Trockenmasse 530.00 kg
Gesamtmasse 575.00 kg
Länge 0.30 m
Durchmesser 4.10 m
Spannweite 29.00 m
Form Box + pan
Hersteller SPXS
Bus-Typ Starlink V2MO
Phasenstatus In Orbit
Besitzer/Staat SPXS/US

Most Searched